EW5945 Weather Reports


Display with metric or nautical units.
time (UTC)temp
F
wind
direction
speed
MPH
gust
MPH
rain 1hr
in
rain 24hr
in
rain mn
in
humidity
%
barometer
mb
20260506112729 62 214 2.0 5.0 0.00 0.00 0.00 100 1016.3
20260506112227 62 215 0.0 7.0 0.00 0.00 0.00 100 1015.9
20260506111728 61 214 0.0 4.0 0.00 0.00 0.00 100 1015.9
20260506111231 61 204 0.0 0.0 0.00 0.00 0.00 100 1015.9
20260506110727 61 193 0.0 2.0 0.00 0.00 0.00 100 1016.3
20260506110230 60 208 0.0 0.0 0.00 0.00 0.00 100 1016.3
20260506105729 60 208 0.0 4.0 0.00 0.00 0.00 100 1016.3
20260506105228 60 222 0.0 2.0 0.00 0.00 0.00 100 1015.9
20260506104730 59 221 0.0 4.0 0.00 0.00 0.00 100 1015.9
20260506104230 59 215 0.0 4.0 0.00 0.00 0.00 99 1015.9
20260506103731 58 225 0.0 0.0 0.00 0.00 0.00 99 1015.9
20260506103227 58 230 0.0 2.0 0.00 0.00 0.00 99 1015.9
20260506102728 58 221 0.0 0.0 0.00 0.00 0.00 99 1015.9
20260506102231 58 221 0.0 0.0 0.00 0.00 0.00 99 1015.9
20260506101730 57 220 0.0 0.0 0.00 0.00 0.00 99 1015.6
20260506101229 57 220 0.0 0.0 0.00 0.00 0.00 99 1015.6
20260506100729 57 220 0.0 0.0 0.00 0.00 0.00 99 1015.6
20260506100231 57 214 0.0 0.0 0.00 0.00 0.00 99 1015.6
20260506095730 57 212 0.0 0.0 0.00 0.00 0.00 99 1015.6
20260506095227 57 214 0.0 0.0 0.00 0.00 0.00 99 1015.6
20260506094728 57 198 0.0 0.0 0.00 0.00 0.00 99 1015.6
20260506094230 57 203 0.0 0.0 0.00 0.00 0.00 99 1015.6
20260506093727 57 203 0.0 0.0 0.00 0.00 0.00 99 1015.6
20260506093228 57 200 0.0 0.0 0.00 0.00 0.00 99 1015.9
20260506092727 57 233 0.0 0.0 0.00 0.00 0.00 98 1015.9
20260506092229 57 237 0.0 0.0 0.00 0.00 0.00 98 1015.9
20260506091728 57 237 0.0 0.0 0.00 0.00 0.00 98 1015.9
20260506091229 57 238 0.0 0.0 0.00 0.00 0.00 98 1015.9
20260506090730 57 239 0.0 0.0 0.00 0.00 0.00 98 1015.6
20260506090227 57 237 0.0 0.0 0.00 0.00 0.00 98 1015.6
20260506085730 57 238 0.0 0.0 0.00 0.00 0.00 98 1015.6
20260506085230 57 237 0.0 0.0 0.00 0.00 0.00 98 1015.6
20260506084728 57 237 0.0 0.0 0.00 0.00 0.00 98 1015.6
20260506084227 57 237 0.0 0.0 0.00 0.00 0.00 98 1015.6
20260506083244 58 238 0.0 0.0 0.00 0.00 0.00 98 1015.9
20260506082727 58 238 0.0 0.0 0.00 0.00 0.00 98 1015.9
20260506082227 57 239 0.0 0.0 0.00 0.00 0.00 98 1015.9
20260506081727 58 239 0.0 0.0 0.00 0.00 0.00 98 1015.9
20260506081227 57 238 0.0 0.0 0.00 0.00 0.00 98 1015.9
20260506080730 57 237 0.0 0.0 0.00 0.00 0.00 98 1015.9
20260506080227 57 239 0.0 0.0 0.00 0.00 0.00 98 1015.9
20260506073229 57 223 0.0 0.0 0.00 0.00 0.00 97 1015.6
20260506072729 57 224 0.0 0.0 0.00 0.00 0.00 97 1015.6
20260506072227 57 221 0.0 0.0 0.00 0.00 0.00 97 1015.9
20260506071732 57 224 0.0 0.0 0.00 0.00 0.00 97 1015.9
20260506071229 57 224 0.0 0.0 0.00 0.00 0.00 97 1015.9
20260506070730 57 231 0.0 0.0 0.00 0.00 0.00 97 1015.9
20260506070229 57 233 0.0 0.0 0.00 0.00 0.00 97 1015.9
20260506062228 58 233 0.0 0.0 0.00 0.00 0.00 96 1016.3
20260506061728 58 234 0.0 0.0 0.00 0.00 0.00 96 1016.3
20260506061229 58 234 0.0 0.0 0.00 0.00 0.00 96 1016.3
20260506060729 59 237 0.0 0.0 0.00 0.00 0.00 96 1016.3
20260506060229 59 232 0.0 0.0 0.00 0.00 0.00 96 1016.3
20260506051229 60 207 0.0 0.0 0.00 0.00 0.00 94 1016.6
20260506050727 60 207 0.0 0.0 0.00 0.00 0.00 94 1016.9
20260506050230 60 207 0.0 0.0 0.00 0.00 0.00 94 1016.9
20260506044728 61 191 0.0 0.0 0.00 0.00 0.00 93 1017.3
20260506044228 61 192 0.0 0.0 0.00 0.00 0.00 93 1017.3
20260506043729 61 192 0.0 0.0 0.00 0.00 0.00 93 1017.3
20260506043229 61 191 0.0 0.0 0.00 0.00 0.00 92 1017.3
20260506042727 61 190 0.0 0.0 0.00 0.00 0.00 92 1017.3
20260506042227 61 188 0.0 2.0 0.00 0.00 0.00 92 1017.3
20260506041727 61 213 0.0 2.0 0.00 0.00 0.00 91 1017.3
20260506041230 61 224 0.0 0.0 0.00 0.00 0.00 91 1017.3
20260506040727 62 224 0.0 0.0 0.00 0.00 0.00 91 1017.3
20260506040228 62 229 0.0 0.0 0.00 0.00 0.00 91 1017.6
20260506035728 62 215 0.0 0.0 0.00 0.00 0.00 90 1017.3
20260506035228 62 212 0.0 0.0 0.00 0.00 0.00 90 1017.6
20260506034728 62 214 2.0 4.0 0.00 0.00 0.00 90 1017.6
20260506034227 62 216 0.0 4.0 0.00 0.00 0.00 89 1017.3
20260506033729 62 215 0.0 2.0 0.00 0.00 0.00 89 1017.6
20260506033230 63 211 0.0 0.0 0.00 0.00 0.00 89 1017.6
20260506032729 63 208 0.0 4.0 0.00 0.00 0.00 89 1017.6
20260506032227 63 220 2.0 5.0 0.00 0.00 0.00 89 1017.6
20260506031727 63 214 0.0 5.0 0.00 0.00 0.00 89 1017.6
20260506031229 63 214 4.0 9.0 0.00 0.00 0.00 89 1017.6
20260506030727 63 223 2.0 7.0 0.00 0.00 0.00 89 1017.6
20260506030228 62 199 0.0 4.0 0.00 0.00 0.00 88 1017.6
20260506025729 62 217 0.0 2.0 0.00 0.00 0.00 87 1017.6
20260506025229 63 189 0.0 2.0 0.00 0.00 0.00 87 1017.6
20260506024733 63 225 0.0 2.0 0.00 0.00 0.00 86 1017.6
20260506024228 63 202 0.0 0.0 0.00 0.00 0.00 86 1017.6
20260506023727 63 204 0.0 4.0 0.00 0.00 0.00 86 1017.6
20260506023229 63 210 0.0 2.0 0.00 0.00 0.00 85 1017.6
20260506022729 64 213 0.0 4.0 0.00 0.00 0.00 85 1017.6
20260506022230 64 210 0.0 4.0 0.00 0.00 0.00 85 1017.6
20260506021728 64 225 0.0 2.0 0.00 0.00 0.00 84 1017.6
20260506021228 64 208 0.0 4.0 0.00 0.00 0.00 84 1017.3
20260506020729 64 204 0.0 2.0 0.00 0.00 0.00 83 1017.6
20260506020229 64 206 0.0 2.0 0.00 0.00 0.00 83 1017.3
20260506015728 65 234 2.0 5.0 0.00 0.00 0.00 83 1017.3
20260506015228 65 189 2.0 7.0 0.00 0.00 0.00 82 1017.3
20260506014729 65 194 2.0 5.0 0.00 0.00 0.00 82 1017.3
20260506014229 65 206 4.0 9.0 0.00 0.00 0.00 82 1017.3
20260506013729 65 205 2.0 7.0 0.00 0.00 0.00 81 1017.3
20260506013229 66 212 0.0 2.0 0.00 0.00 0.00 81 1017.3
20260506012734 66 205 2.0 5.0 0.00 0.00 0.00 80 1017.3
20260506012229 66 195 4.0 7.0 0.00 0.00 0.00 80 1017.3
20260506011242 66 250 4.0 7.0 0.00 0.00 0.00 80 1016.9
20260506010730 66 224 2.0 5.0 0.00 0.00 0.00 80 1016.9
20260506010229 66 206 0.0 4.0 0.00 0.00 0.00 79 1016.9
20260506005729 67 224 2.0 4.0 0.00 0.00 0.00 78 1016.9
20260506005228 67 210 0.0 4.0 0.00 0.00 0.00 78 1016.9
20260506004727 67 212 0.0 4.0 0.00 0.00 0.00 77 1016.9
20260506004229 67 209 0.0 5.0 0.00 0.00 0.00 76 1016.9
20260506003727 67 211 0.0 4.0 0.00 0.00 0.00 76 1016.9
20260506003229 68 222 0.0 4.0 0.00 0.00 0.00 75 1016.9
20260506002728 68 200 2.0 7.0 0.00 0.00 0.00 75 1016.9
20260506002230 68 218 4.0 13.0 0.00 0.00 0.00 74 1016.9
20260506001727 68 190 4.0 9.0 0.00 0.00 0.00 74 1016.9
20260506001227 69 226 4.0 11.0 0.00 0.00 0.00 73 1016.9
20260506000729 69 227 2.0 7.0 0.00 0.00 0.00 72 1016.9
20260506000227 69 198 4.0 7.0 0.00 0.00 0.00 72 1016.9
20260505235730 69 170 4.0 14.0 0.00 0.00 0.00 71 1016.9
20260505235228 70 214 9.0 18.0 0.00 0.00 0.00 71 1016.9
20260505234727 70 196 4.0 13.0 0.00 0.00 0.00 71 1016.9
20260505234227 70 210 4.0 14.0 0.00 0.00 0.00 71 1016.9
20260505233728 70 197 4.0 13.0 0.00 0.00 0.00 71 1016.9
20260505233227 70 197 7.0 11.0 0.00 0.00 0.00 71 1016.9
20260505232727 70 248 7.0 13.0 0.00 0.00 0.00 71 1016.9
20260505232228 71 218 4.0 11.0 0.00 0.00 0.00 71 1016.9
20260505231729 71 238 4.0 13.0 0.00 0.00 0.00 70 1016.9
20260505231229 71 164 7.0 18.0 0.00 0.00 0.00 70 1016.9
20260505230727 71 224 9.0 16.0 0.00 0.00 0.00 69 1016.9
20260505230229 72 221 11.0 16.0 0.00 0.00 0.00 68 1016.9
20260505225727 72 229 13.0 18.0 0.00 0.00 0.00 68 1016.9
20260505225228 73 225 7.0 16.0 0.00 0.00 0.00 67 1016.9
20260505224727 73 199 4.0 13.0 0.00 0.00 0.00 67 1016.9
20260505224228 73 220 11.0 20.0 0.00 0.00 0.00 67 1016.9
20260505223727 73 239 4.0 9.0 0.00 0.00 0.00 68 1016.9
20260505223232 73 237 7.0 13.0 0.00 0.00 0.00 67 1016.9
20260505222727 73 211 9.0 18.0 0.00 0.00 0.00 66 1016.9
20260505222228 74 196 7.0 14.0 0.00 0.00 0.00 66 1016.9
20260505221728 74 187 9.0 20.0 0.00 0.00 0.00 66 1016.9
20260505221228 74 195 11.0 27.0 0.00 0.00 0.00 66 1016.9
20260505220727 75 193 4.0 13.0 0.00 0.00 0.00 66 1016.9
20260505220229 75 121 9.0 16.0 0.00 0.00 0.00 66 1016.9
20260505215730 75 217 7.0 16.0 0.00 0.00 0.00 65 1016.9
20260505215230 75 220 9.0 22.0 0.00 0.00 0.00 66 1016.9
20260505214729 75 199 4.0 16.0 0.00 0.00 0.00 68 1016.9
20260505214227 75 194 7.0 14.0 0.00 0.00 0.00 65 1016.6
20260505213728 75 221 4.0 20.0 0.00 0.00 0.00 65 1016.6
20260505213230 75 103 2.0 5.0 0.00 0.00 0.00 66 1016.6
20260505212729 74 123 4.0 9.0 0.00 0.00 0.00 66 1016.6
20260505212230 74 142 4.0 16.0 0.00 0.00 0.00 66 1016.6
20260505211728 75 219 4.0 20.0 0.00 0.00 0.00 65 1016.6
20260505211227 76 208 2.0 7.0 0.00 0.00 0.00 65 1016.6
20260505210731 76 154 4.0 13.0 0.00 0.00 0.00 66 1016.6
20260505210230 74 186 7.0 20.0 0.00 0.00 0.00 67 1016.6
20260505205727 74 189 4.0 7.0 0.00 0.00 0.00 67 1016.6
20260505205229 75 236 4.0 7.0 0.00 0.00 0.00 67 1016.9
20260505204732 75 210 4.0 9.0 0.00 0.00 0.00 66 1016.6
20260505204227 74 187 7.0 13.0 0.00 0.00 0.00 67 1016.9
20260505203730 76 226 11.0 20.0 0.00 0.00 0.00 64 1016.9
20260505203227 77 241 7.0 16.0 0.00 0.00 0.00 64 1016.9
20260505202728 77 240 2.0 7.0 0.00 0.00 0.00 64 1016.9
20260505202227 76 252 4.0 16.0 0.00 0.00 0.00 68 1016.9
20260505201729 75 261 7.0 14.0 0.00 0.00 0.00 67 1016.9
20260505201230 74 211 7.0 13.0 0.00 0.00 0.00 66 1016.9
20260505200729 76 132 2.0 7.0 0.00 0.00 0.00 65 1017.3
20260505200229 75 174 4.0 13.0 0.00 0.00 0.00 66 1017.3
20260505195730 76 113 4.0 7.0 0.00 0.00 0.00 66 1016.9
20260505195227 76 164 4.0 9.0 0.00 0.00 0.00 67 1016.9
20260505194731 77 186 7.0 14.0 0.00 0.00 0.00 62 1017.3
20260505194228 77 185 4.0 11.0 0.00 0.00 0.00 63 1017.3
20260505193729 76 274 4.0 16.0 0.00 0.00 0.00 62 1017.3
20260505192811 78 219 7.0 18.0 0.00 0.00 0.00 58 1017.6
20260505191730 79 224 7.0 18.0 0.00 0.00 0.00 58 1017.6
20260505191228 78 163 4.0 9.0 0.00 0.00 0.00 58 1017.6
20260505190727 77 195 4.0 9.0 0.00 0.00 0.00 59 1017.9
20260505190229 77 196 4.0 9.0 0.00 0.00 0.00 59 1017.6
20260505185728 77 136 4.0 11.0 0.00 0.00 0.00 58 1017.6
20260505185227 77 131 4.0 13.0 0.00 0.00 0.00 60 1017.9
20260505184729 77 192 4.0 7.0 0.00 0.00 0.00 60 1017.9
20260505184229 77 153 4.0 18.0 0.00 0.00 0.00 57 1017.9
20260505183734 77 156 4.0 16.0 0.00 0.00 0.00 60 1017.9
20260505183227 77 172 4.0 13.0 0.00 0.00 0.00 62 1017.9
20260505182729 79 147 2.0 7.0 0.00 0.00 0.00 59 1017.9
20260505182228 79 157 9.0 20.0 0.00 0.00 0.00 60 1017.9
20260505181730 78 222 4.0 11.0 0.00 0.00 0.00 60 1017.9
20260505181229 78 205 4.0 9.0 0.00 0.00 0.00 60 1017.9
20260505180730 77 209 4.0 13.0 0.00 0.00 0.00 59 1017.9
20260505180228 78 212 4.0 13.0 0.00 0.00 0.00 60 1017.9
20260505175727 77 218 4.0 16.0 0.00 0.00 0.00 57 1017.9
20260505175227 77 161 4.0 7.0 0.00 0.00 0.00 60 1017.9
20260505174730 78 176 4.0 7.0 0.00 0.00 0.00 57 1017.9
20260505174228 79 213 7.0 18.0 0.00 0.00 0.00 58 1017.9
20260505173729 78 213 4.0 18.0 0.00 0.00 0.00 58 1017.9
20260505173228 78 179 9.0 16.0 0.00 0.00 0.00 58 1017.9
20260505172728 78 211 4.0 11.0 0.00 0.00 0.00 62 1017.9
20260505172229 78 167 4.0 11.0 0.00 0.00 0.00 59 1017.9
20260505171730 77 234 4.0 9.0 0.00 0.00 0.00 60 1017.9
20260505171230 77 201 4.0 9.0 0.00 0.00 0.00 59 1017.9
20260505170728 78 152 7.0 11.0 0.00 0.00 0.00 59 1017.9
20260505170227 78 229 4.0 7.0 0.00 0.00 0.00 59 1017.9
20260505165728 77 204 2.0 5.0 0.00 0.00 0.00 60 1017.9
20260505165229 78 231 7.0 13.0 0.00 0.00 0.00 58 1017.9
20260505164728 77 173 2.0 7.0 0.00 0.00 0.00 58 1018.3
20260505164229 77 171 9.0 22.0 0.00 0.00 0.00 60 1018.3
20260505163727 77 209 11.0 23.0 0.00 0.00 0.00 59 1018.3
20260505163230 77 173 4.0 14.0 0.00 0.00 0.00 58 1018.3
20260505162730 77 206 7.0 16.0 0.00 0.00 0.00 59 1018.3
20260505162228 76 92 4.0 7.0 0.00 0.00 0.00 59 1018.3
20260505161728 76 131 7.0 16.0 0.00 0.00 0.00 58 1018.3
20260505161230 77 200 7.0 16.0 0.00 0.00 0.00 58 1018.3
20260505160728 77 176 7.0 14.0 0.00 0.00 0.00 58 1018.3
20260505160227 76 217 4.0 7.0 0.00 0.00 0.00 60 1018.3
20260505153227 76 254 4.0 11.0 0.00 0.00 0.00 62 1018.6
20260505152730 76 257 9.0 18.0 0.00 0.00 0.00 61 1018.6
20260505152229 75 235 7.0 14.0 0.00 0.00 0.00 61 1018.6
20260505151730 75 205 4.0 13.0 0.00 0.00 0.00 62 1018.6
20260505151229 75 245 11.0 18.0 0.00 0.00 0.00 61 1018.6
20260505150729 75 208 9.0 16.0 0.00 0.00 0.00 63 1018.6
20260505150229 74 245 7.0 11.0 0.00 0.00 0.00 61 1019.0
20260505140227 71 189 11.0 16.0 0.00 0.00 0.00 70 1018.6
20260505130230 67 213 9.0 14.0 0.00 0.00 0.00 79 1018.6
20260505124728 65 228 4.0 9.0 0.00 0.00 0.00 84 1018.6
20260505124228 64 215 4.0 9.0 0.00 0.00 0.00 86 1018.6
20260505123729 63 232 7.0 9.0 0.00 0.00 0.00 87 1018.6
20260505123230 62 217 7.0 13.0 0.00 0.00 0.00 90 1018.6
20260505122729 61 236 7.0 11.0 0.00 0.00 0.00 92 1018.6
20260505122228 60 219 4.0 5.0 0.00 0.00 0.00 96 1018.6
20260505121729 59 231 2.0 5.0 0.00 0.00 0.00 98 1018.6
20260505121228 58 215 2.0 5.0 0.00 0.00 0.00 99 1018.6
20260505120728 58 238 2.0 5.0 0.00 0.00 0.00 99 1018.6
20260505120230 57 222 2.0 5.0 0.00 0.00 0.00 99 1018.6
20260505115729 56 228 2.0 4.0 0.00 0.00 0.00 99 1018.6
20260505115228 55 219 0.0 0.0 0.00 0.00 0.00 99 1018.6
20260505114729 55 219 0.0 0.0 0.00 0.00 0.00 99 1018.3
20260505114229 54 219 0.0 0.0 0.00 0.00 0.00 99 1018.6
20260505113730 54 219 0.0 0.0 0.00 0.00 0.00 99 1018.3
20260505113231 54 219 0.0 0.0 0.00 0.00 0.00 99 1018.3